User: anonymous   Login
Location: Unspecified
(0.0000°N, 0.0000°E)
Time: 16:19:10
(UTC+00:00)
Language:

TRS 6 - Orbit

View from above orbital plane
View from above orbital plane
View from above satellite
View from above satellite

Ground track
Ground track

The orbit data is extracted from the following two-line orbital elements,

1   608U 63014C   18114.41933977 +.00000005 +00000-0 +88771-3 0  9995
2   608 087.3172 117.5716 0051322 189.7524 170.2337 08.65281743736093
Epoch (UTC): 24 April 2018 10:03:50
Eccentricity: 0.0051322
inclination: 87.3172°
perigee height: 3592 km
apogee height: 3695 km
right ascension of ascending node: 117.5716°
argument of perigee: 189.7524°
revolutions per day: 8.65281743
mean anomaly at epoch: 170.2337°
orbit number at epoch: 73609

The dashed part of the orbit path shows where the satellite is in the earth's shadow,  

DLR